Regional Weather Roundup
Issued by NWS Midland/Odessa, TX

Skip options and go directly to product.
Home | Oldest Version | Previous Version | Current Version | All | Text Only | Save Text | Print | Product List | Glossary Off

Skip product version selection by date and time.   

881
ASUS44 KMAF 231310
RWRMAF
MIDLAND AREA WEATHER ROUNDUP
NATIONAL WEATHER SERVICE MIDLAND TX
800 AM CDT WED APR 23 2014

...IN SOUTHWEST TEXAS AND SOUTHEAST NEW MEXICO...

CITY           SKY/WX    TMP DP  RH WIND       PRES   REMARKS
ALPINE         CLEAR     67  47  49 S16G22    29.97R
ANDREWS        FAIR      64  50  61 S7        29.87S
ARTESIA        CLOUDY    63  46  55 S14       29.83R
BIG SPRING     CLOUDY    67  55  63 SE17G23   29.89S
CARLSBAD       MOCLDY    61  46  57 W3        29.83R
DRYDEN           N/A     66  54  65 NE5       29.86R
FORT STOCKTON  PTCLDY    66  51  58 S20G25    29.84R
GUAD PASS      PTCLDY    61  44  53 SW15      29.96R
HOBBS          PTCLDY    63  48  59 SE17G24   29.86S
MARFA          CLEAR     52  43  71 SE5       29.98R
MIDLAND AIRPK  CLOUDY    66  53  61 SE10      29.86S
MIDLAND INTL   CLOUDY    66  53  63 S16       29.86R
ODESSA           N/A    N/A N/A N/A MISG      29.86S
PECOS          CLEAR     62  53  73 E8        29.81R
PRESIDIO       FAIR      71  48  45 CALM      29.86R
SEMINOLE       CLOUDY    61  49  65 SE7       29.88S
SNYDER         MOSUNNY   64  54  70 SE14      29.88S
WINK           MOCLDY    67  52  58 SE14      29.82S
$$
...OTHER STATIONS IN TEXAS...

CITY           SKY/WX    TMP DP  RH WIND       PRES   REMARKS
ABILENE        SUNNY     64  55  72 S10       29.90S
AMARILLO       PTSUNNY   61  46  57 S18G29    29.84F
AUSTIN         MOSUNNY   58  57  97 CALM      29.93S
BROWNSVILLE    SUNNY     70  69  97 SE6       29.92R
CORPUS CHRISTI MOSUNNY   70  68  93 SE5       29.92R
DALLAS FTW     SUNNY     65  58  78 E3        29.92R
DEL RIO        MOSUNNY   70  63  78 E13       29.86R
EL PASO        MOCLDY    67  25  20 S7        29.87R
HOUSTON INT    MOSUNNY   68  67  96 CALM      29.96R
LUBBOCK        CLOUDY    62  48  60 S16       29.87R
SAN ANGELO     SUNNY     67  58  72 S16G25    29.87S
SAN ANTONIO    MOSUNNY   64  61  90 E3        29.94R
WACO           SUNNY     61  58  90 CALM      29.93R
WICHITA FALLS  NOT AVBL
$$
...OTHER LOCATIONS IN NEW MEXICO...

CITY           SKY/WX    TMP DP  RH WIND       PRES   REMARKS
ALAMAGORDO     MOCLDY    64  27  24 S7        29.87R
ALBUQUERQUE    MOCLDY    53  28  38 SE6       29.88R
CANNON AFB     CLOUDY    60  46  58 S15       29.84S
CLOVIS         CLOUDY    59  45  58 S16       29.87S
HOLLOMAN AFB   PTCLDY    61  31  31 S10       29.85R
ROSWELL        CLOUDY    63  47  55 S15       29.82R
RUIDOSO        PTCLDY    54  27  35 S12       29.99R
SANTA FE       PTCLDY    48  27  44 W5        29.88R
TRUTH OR CONSE CLOUDY    57  30  35 N5        29.86R
TUCUMCARI      CLOUDY    62  43  49 S18       29.77S
$$

USA.gov is the U.S. government's official web portal to all federal, state and local government web resources and services.